Time,TemperatureF,DewpointF,PressureIn,WindDirection,WindDirectionDegrees,WindSpeedMPH,WindSpeedGustMPH,Humidity,HourlyPrecipIn,Conditions,Clouds,dailyrainin,SoftwareType,DateUTC
2013-04-11 00:00:00,42.4,41.6,29.99,East,86,1.0,1.0,97,0.00,,,0.00,Wunderground v.1.15,2013-04-11 04:00:00,
2013-04-11 00:02:00,42.4,41.6,29.99,East,86,0.0,1.0,97,0.00,,,0.00,Wunderground v.1.15,2013-04-11 04:02:00,
2013-04-11 00:09:00,42.4,41.6,30.00,East,86,0.0,0.0,97,0.00,,,0.01,Wunderground v.1.15,2013-04-11 04:09:00,
2013-04-11 00:15:00,42.4,41.6,30.00,East,86,0.0,0.0,97,0.00,,,0.01,Wunderground v.1.15,2013-04-11 04:15:00,
2013-04-11 00:22:00,42.4,41.6,29.99,East,86,0.0,0.0,97,0.00,,,0.01,Wunderground v.1.15,2013-04-11 04:22:00,
2013-04-11 00:28:00,42.5,41.7,29.98,East,86,0.0,0.0,97,0.00,,,0.01,Wunderground v.1.15,2013-04-11 04:28:00,
2013-04-11 00:34:00,42.6,41.8,30.00,East,86,0.0,3.0,97,0.00,,,0.01,Wunderground v.1.15,2013-04-11 04:34:00,
2013-04-11 00:39:00,42.5,41.7,30.00,East,86,0.0,0.0,97,0.00,,,0.01,Wunderground v.1.15,2013-04-11 04:39:00,
2013-04-11 00:45:00,42.5,41.7,30.00,East,86,0.0,0.0,97,0.00,,,0.01,Wunderground v.1.15,2013-04-11 04:45:00,
2013-04-11 00:51:00,42.5,41.7,30.00,East,86,0.0,0.0,97,0.00,,,0.01,Wunderground v.1.15,2013-04-11 04:51:00,
2013-04-11 00:57:00,42.4,41.6,30.00,East,86,0.0,0.0,97,0.00,,,0.02,Wunderground v.1.15,2013-04-11 04:57:00,
2013-04-11 01:03:00,42.5,41.7,30.00,East,86,0.0,4.0,97,0.00,,,0.02,Wunderground v.1.15,2013-04-11 05:03:00,
2013-04-11 01:08:00,42.6,41.8,29.99,East,86,0.0,4.0,97,0.00,,,0.02,Wunderground v.1.15,2013-04-11 05:08:00,
2013-04-11 01:14:00,42.7,41.9,29.98,East,86,0.0,4.0,97,0.00,,,0.02,Wunderground v.1.15,2013-04-11 05:14:00,
2013-04-11 01:20:00,42.7,41.9,29.98,ENE,77,1.0,4.0,97,0.00,,,0.02,Wunderground v.1.15,2013-04-11 05:20:00,
2013-04-11 01:26:00,42.7,41.9,30.00,ENE,77,0.0,4.0,97,0.00,,,0.02,Wunderground v.1.15,2013-04-11 05:26:00,
2013-04-11 01:32:00,42.8,42.0,30.00,ENE,77,1.0,4.0,97,0.00,,,0.03,Wunderground v.1.15,2013-04-11 05:32:00,
2013-04-11 01:37:00,42.9,42.1,30.00,NNW,346,1.0,6.0,97,0.00,,,0.03,Wunderground v.1.15,2013-04-11 05:37:00,
2013-04-11 01:43:00,42.9,42.1,30.00,NNE,22,2.0,4.0,97,0.00,,,0.03,Wunderground v.1.15,2013-04-11 05:43:00,
2013-04-11 01:49:00,42.7,41.9,30.01,NNW,344,1.0,1.0,97,0.00,,,0.04,Wunderground v.1.15,2013-04-11 05:49:00,
2013-04-11 01:55:00,42.6,41.8,29.99,NNW,344,0.0,4.0,97,0.00,,,0.04,Wunderground v.1.15,2013-04-11 05:55:00,
2013-04-11 02:02:00,42.4,41.6,29.99,North,355,0.0,4.0,97,0.00,,,0.04,Wunderground v.1.15,2013-04-11 06:02:00,
2013-04-11 02:08:00,42.2,41.4,29.98,North,349,1.0,4.0,97,0.00,,,0.04,Wunderground v.1.15,2013-04-11 06:08:00,
2013-04-11 02:14:00,42.0,41.2,29.98,WNW,302,1.0,4.0,97,0.00,,,0.04,Wunderground v.1.15,2013-04-11 06:14:00,
2013-04-11 02:20:00,41.7,40.9,29.96,ENE,60,2.0,4.0,97,0.00,,,0.04,Wunderground v.1.15,2013-04-11 06:20:00,
2013-04-11 02:26:00,41.5,40.7,29.97,East,93,1.0,4.0,97,0.00,,,0.05,Wunderground v.1.15,2013-04-11 06:26:00,
2013-04-11 02:31:00,41.4,40.6,29.97,SE,146,1.0,5.0,97,0.00,,,0.05,Wunderground v.1.15,2013-04-11 06:31:00,
2013-04-11 02:38:00,41.3,40.5,29.98,East,82,1.0,5.0,97,0.00,,,0.05,Wunderground v.1.15,2013-04-11 06:38:00,
2013-04-11 02:44:00,41.3,40.5,29.97,ESE,108,0.0,4.0,97,0.00,,,0.06,Wunderground v.1.15,2013-04-11 06:44:00,
2013-04-11 02:50:00,41.3,40.5,29.97,ENE,66,1.0,4.0,97,0.00,,,0.06,Wunderground v.1.15,2013-04-11 06:50:00,
2013-04-11 02:57:00,41.3,40.5,29.95,NE,39,1.0,5.0,97,0.00,,,0.06,Wunderground v.1.15,2013-04-11 06:57:00,
2013-04-11 03:02:00,41.2,40.4,29.93,East,94,2.0,4.0,97,0.00,,,0.06,Wunderground v.1.15,2013-04-11 07:02:00,
2013-04-11 03:08:00,41.1,40.3,29.92,ENE,65,4.0,6.0,97,0.00,,,0.06,Wunderground v.1.15,2013-04-11 07:08:00,
2013-04-11 03:14:00,41.0,40.2,29.93,NNE,30,4.0,7.0,97,0.00,,,0.07,Wunderground v.1.15,2013-04-11 07:14:00,
2013-04-11 03:20:00,40.9,40.1,29.94,ENE,59,3.0,4.0,97,0.00,,,0.07,Wunderground v.1.15,2013-04-11 07:20:00,
2013-04-11 03:26:00,40.9,40.1,29.93,East,82,1.0,6.0,97,0.00,,,0.07,Wunderground v.1.15,2013-04-11 07:26:00,
2013-04-11 03:32:00,40.8,40.0,29.95,ENE,59,1.0,4.0,97,0.00,,,0.07,Wunderground v.1.15,2013-04-11 07:32:00,
2013-04-11 03:37:00,40.8,40.0,29.93,NE,54,1.0,4.0,97,0.00,,,0.08,Wunderground v.1.15,2013-04-11 07:37:00,
2013-04-11 03:43:00,40.8,40.0,29.92,East,89,1.0,4.0,97,0.00,,,0.08,Wunderground v.1.15,2013-04-11 07:43:00,
2013-04-11 03:49:00,40.9,40.1,29.94,East,86,1.0,1.0,97,0.00,,,0.08,Wunderground v.1.15,2013-04-11 07:49:00,
2013-04-11 03:55:00,40.9,40.1,29.95,East,82,0.0,4.0,97,0.00,,,0.08,Wunderground v.1.15,2013-04-11 07:55:00,
2013-04-11 04:01:00,41.0,40.2,29.95,ENE,61,1.0,4.0,97,0.00,,,0.08,Wunderground v.1.15,2013-04-11 08:01:00,
2013-04-11 04:07:00,41.0,40.2,29.96,NNW,346,1.0,4.0,97,0.00,,,0.08,Wunderground v.1.15,2013-04-11 08:07:00,
2013-04-11 04:12:00,41.0,40.2,29.96,North,360,1.0,4.0,97,0.00,,,0.09,Wunderground v.1.15,2013-04-11 08:12:00,
2013-04-11 04:18:00,40.9,40.1,29.95,NE,42,1.0,4.0,97,0.00,,,0.09,Wunderground v.1.15,2013-04-11 08:18:00,
2013-04-11 04:24:00,40.7,39.9,29.94,ENE,69,2.0,4.0,97,0.00,,,0.09,Wunderground v.1.15,2013-04-11 08:24:00,
2013-04-11 04:30:00,40.5,39.7,29.94,NE,54,3.0,7.0,97,0.00,,,0.10,Wunderground v.1.15,2013-04-11 08:30:00,
2013-04-11 04:36:00,40.3,39.5,29.93,NNE,23,4.0,8.0,97,0.00,,,0.10,Wunderground v.1.15,2013-04-11 08:36:00,
2013-04-11 04:42:00,40.2,39.4,29.94,NNE,31,2.0,4.0,97,0.00,,,0.10,Wunderground v.1.15,2013-04-11 08:42:00,
2013-04-11 04:47:00,40.1,39.3,29.94,NE,41,1.0,4.0,97,0.00,,,0.10,Wunderground v.1.15,2013-04-11 08:47:00,
2013-04-11 04:53:00,40.0,39.2,29.95,North,11,2.0,4.0,97,0.00,,,0.10,Wunderground v.1.15,2013-04-11 08:53:00,
2013-04-11 04:59:00,39.9,39.1,29.92,NE,35,3.0,4.0,97,0.00,,,0.10,Wunderground v.1.15,2013-04-11 08:59:00,
2013-04-11 05:04:00,39.8,39.0,29.91,ENE,73,4.0,5.0,97,0.00,,,0.10,Wunderground v.1.15,2013-04-11 09:04:00,
2013-04-11 05:10:00,39.8,39.0,29.91,NNE,23,5.0,5.0,97,0.00,,,0.11,Wunderground v.1.15,2013-04-11 09:10:00,
2013-04-11 05:15:00,39.8,39.0,29.91,ENE,58,5.0,7.0,97,0.00,,,0.11,Wunderground v.1.15,2013-04-11 09:15:00,
2013-04-11 05:23:00,40.0,39.2,29.91,East,89,5.0,11.0,97,0.00,,,0.11,Wunderground v.1.15,2013-04-11 09:23:00,
2013-04-11 05:28:00,40.1,39.3,29.92,East,90,4.0,11.0,97,0.00,,,0.11,Wunderground v.1.15,2013-04-11 09:28:00,
2013-04-11 05:34:00,40.2,39.4,29.91,East,97,2.0,6.0,97,0.00,,,0.12,Wunderground v.1.15,2013-04-11 09:34:00,
2013-04-11 05:40:00,40.4,39.6,29.92,ENE,78,3.0,4.0,97,0.00,,,0.12,Wunderground v.1.15,2013-04-11 09:40:00,
2013-04-11 05:47:00,40.5,39.7,29.92,East,92,1.0,4.0,97,0.00,,,0.12,Wunderground v.1.15,2013-04-11 09:47:00,
2013-04-11 05:53:00,40.5,39.7,29.92,ENE,57,1.0,4.0,97,0.00,,,0.12,Wunderground v.1.15,2013-04-11 09:53:00,
2013-04-11 05:59:00,40.6,39.8,29.91,East,95,2.0,2.0,97,0.00,,,0.12,Wunderground v.1.15,2013-04-11 09:59:00,
2013-04-11 06:05:00,40.7,39.9,29.91,ENE,62,3.0,3.0,97,0.00,,,0.12,Wunderground v.1.15,2013-04-11 10:05:00,
2013-04-11 06:10:00,40.7,39.9,29.91,East,89,1.0,3.0,97,0.00,,,0.12,Wunderground v.1.15,2013-04-11 10:10:00,
2013-04-11 06:17:00,40.8,40.0,29.91,East,87,2.0,6.0,97,0.00,,,0.13,Wunderground v.1.15,2013-04-11 10:17:00,
2013-04-11 06:23:00,40.8,40.0,29.91,ESE,103,2.0,4.0,97,0.00,,,0.13,Wunderground v.1.15,2013-04-11 10:23:00,
2013-04-11 06:29:00,40.8,40.0,29.91,ENE,65,1.0,4.0,97,0.00,,,0.13,Wunderground v.1.15,2013-04-11 10:29:00,
2013-04-11 06:35:00,40.9,40.1,29.92,ESE,111,1.0,4.0,97,0.00,,,0.13,Wunderground v.1.15,2013-04-11 10:35:00,
2013-04-11 06:42:00,40.9,40.1,29.92,SSE,159,0.0,2.0,97,0.00,,,0.14,Wunderground v.1.15,2013-04-11 10:42:00,
2013-04-11 06:48:00,41.0,40.2,29.92,SE,135,1.0,2.0,97,0.00,,,0.14,Wunderground v.1.15,2013-04-11 10:48:00,
2013-04-11 06:53:00,41.0,40.2,29.92,East,90,1.0,3.0,97,0.00,,,0.14,Wunderground v.1.15,2013-04-11 10:53:00,
2013-04-11 06:59:00,41.0,40.2,29.92,SE,127,1.0,1.0,97,0.00,,,0.14,Wunderground v.1.15,2013-04-11 10:59:00,
2013-04-11 07:05:00,41.1,40.3,29.92,East,88,1.0,7.0,97,0.00,,,0.14,Wunderground v.1.15,2013-04-11 11:05:00,
2013-04-11 07:10:00,41.2,40.4,29.92,ENE,71,1.0,7.0,97,0.00,,,0.14,Wunderground v.1.15,2013-04-11 11:10:00,
2013-04-11 07:17:00,41.3,40.5,29.92,East,99,1.0,7.0,97,0.00,,,0.14,Wunderground v.1.15,2013-04-11 11:17:00,
2013-04-11 07:22:00,41.3,40.5,29.92,NE,55,1.0,7.0,97,0.00,,,0.14,Wunderground v.1.15,2013-04-11 11:22:00,
2013-04-11 07:28:00,41.4,40.6,29.93,NNW,333,1.0,7.0,97,0.00,,,0.15,Wunderground v.1.15,2013-04-11 11:28:00,
2013-04-11 07:33:00,41.4,40.6,29.93,NNW,333,1.0,7.0,97,0.00,,,0.15,Wunderground v.1.15,2013-04-11 11:33:00,
2013-04-11 07:39:00,41.5,40.7,29.94,NE,39,1.0,7.0,97,0.00,,,0.15,Wunderground v.1.15,2013-04-11 11:39:00,
2013-04-11 07:45:00,41.5,40.7,29.95,NNE,28,1.0,7.0,97,0.00,,,0.15,Wunderground v.1.15,2013-04-11 11:45:00,
2013-04-11 07:53:00,41.7,40.9,30.01,ENE,71,3.0,7.0,97,0.00,,,0.15,Wunderground v.1.15,2013-04-11 11:53:00,
2013-04-11 07:59:00,41.5,40.7,30.01,WNW,302,6.0,11.0,97,0.00,,,0.16,Wunderground v.1.15,2013-04-11 11:59:00,
2013-04-11 08:04:00,41.2,40.4,30.01,NNW,336,5.0,11.0,97,0.00,,,0.16,Wunderground v.1.15,2013-04-11 12:04:00,
2013-04-11 08:10:00,40.8,40.0,30.02,WNW,295,4.0,7.0,97,0.00,,,0.16,Wunderground v.1.15,2013-04-11 12:10:00,
2013-04-11 08:17:00,40.5,39.7,30.01,NNE,15,3.0,9.0,97,0.00,,,0.16,Wunderground v.1.15,2013-04-11 12:17:00,
2013-04-11 08:23:00,40.2,39.4,30.00,North,355,3.0,7.0,97,0.00,,,0.16,Wunderground v.1.15,2013-04-11 12:23:00,
2013-04-11 08:28:00,40.1,39.3,29.98,ENE,76,4.0,7.0,97,0.00,,,0.16,Wunderground v.1.15,2013-04-11 12:28:00,
2013-04-11 08:34:00,39.8,39.0,29.98,North,5,4.0,10.0,97,0.00,,,0.16,Wunderground v.1.15,2013-04-11 12:34:00,
2013-04-11 08:40:00,39.7,38.9,29.98,ENE,74,3.0,7.0,97,0.00,,,0.16,Wunderground v.1.15,2013-04-11 12:40:00,
2013-04-11 08:48:00,39.5,38.7,29.97,East,81,2.0,9.0,97,0.00,,,0.16,Wunderground v.1.15,2013-04-11 12:48:00,
2013-04-11 08:54:00,39.5,38.7,29.96,ENE,74,3.0,7.0,97,0.00,,,0.17,Wunderground v.1.15,2013-04-11 12:54:00,
2013-04-11 08:59:00,39.4,38.6,29.95,East,84,4.0,4.0,97,0.00,,,0.17,Wunderground v.1.15,2013-04-11 12:59:00,
2013-04-11 09:05:00,39.4,38.6,29.95,East,84,4.0,7.0,97,0.00,,,0.17,Wunderground v.1.15,2013-04-11 13:05:00,
2013-04-11 09:10:00,39.5,38.7,29.94,NE,35,4.0,6.0,97,0.00,,,0.17,Wunderground v.1.15,2013-04-11 13:10:00,
2013-04-11 09:17:00,39.6,38.8,29.94,East,89,3.0,6.0,97,0.00,,,0.17,Wunderground v.1.15,2013-04-11 13:17:00,
2013-04-11 09:22:00,39.6,38.8,29.96,NE,50,2.0,4.0,97,0.00,,,0.18,Wunderground v.1.15,2013-04-11 13:22:00,
2013-04-11 09:28:00,39.7,38.9,29.96,NNE,32,1.0,4.0,97,0.00,,,0.18,Wunderground v.1.15,2013-04-11 13:28:00,
2013-04-11 09:34:00,39.7,38.9,29.97,ENE,69,2.0,6.0,97,0.00,,,0.18,Wunderground v.1.15,2013-04-11 13:34:00,
2013-04-11 09:40:00,39.7,38.9,29.97,NE,55,2.0,4.0,97,0.00,,,0.18,Wunderground v.1.15,2013-04-11 13:40:00,
2013-04-11 09:47:00,39.7,38.9,29.97,East,84,1.0,5.0,97,0.00,,,0.18,Wunderground v.1.15,2013-04-11 13:47:00,
2013-04-11 09:54:00,39.8,39.0,29.97,East,88,2.0,5.0,97,0.00,,,0.18,Wunderground v.1.15,2013-04-11 13:54:00,
2013-04-11 10:00:00,39.8,39.0,29.97,East,80,2.0,12.0,97,0.00,,,0.18,Wunderground v.1.15,2013-04-11 14:00:00,
2013-04-11 10:05:00,39.9,39.4,29.97,East,100,2.0,12.0,98,0.00,,,0.18,Wunderground v.1.15,2013-04-11 14:05:00,
2013-04-11 10:13:00,40.0,39.5,29.96,ESE,117,3.0,12.0,98,0.00,,,0.18,Wunderground v.1.15,2013-04-11 14:13:00,
2013-04-11 10:18:00,40.1,39.3,29.95,East,85,3.0,12.0,97,0.00,,,0.19,Wunderground v.1.15,2013-04-11 14:18:00,
2013-04-11 10:24:00,40.3,39.5,29.95,East,80,3.0,12.0,97,0.00,,,0.19,Wunderground v.1.15,2013-04-11 14:24:00,
2013-04-11 10:30:00,40.5,40.0,29.95,ESE,105,2.0,12.0,98,0.00,,,0.19,Wunderground v.1.15,2013-04-11 14:30:00,
2013-04-11 10:38:00,40.7,40.2,29.95,East,89,2.0,12.0,98,0.00,,,0.19,Wunderground v.1.15,2013-04-11 14:38:00,
2013-04-11 10:44:00,40.9,40.4,29.95,ESE,107,2.0,12.0,98,0.00,,,0.19,Wunderground v.1.15,2013-04-11 14:44:00,
2013-04-11 10:49:00,41.0,40.5,29.94,SSE,159,2.0,2.0,98,0.00,,,0.20,Wunderground v.1.15,2013-04-11 14:49:00,
2013-04-11 10:55:00,41.3,40.8,29.93,South,176,2.0,12.0,98,0.00,,,0.20,Wunderground v.1.15,2013-04-11 14:55:00,
2013-04-11 11:02:00,41.5,41.0,29.95,ESE,123,2.0,12.0,98,0.00,,,0.20,Wunderground v.1.15,2013-04-11 15:02:00,
2013-04-11 11:08:00,41.7,41.2,29.95,ESE,107,1.0,12.0,98,0.00,,,0.20,Wunderground v.1.15,2013-04-11 15:08:00,
2013-04-11 11:14:00,42.0,41.5,29.95,NNE,33,1.0,12.0,98,0.00,,,0.20,Wunderground v.1.15,2013-04-11 15:14:00,
2013-04-11 11:20:00,42.3,41.8,29.95,ENE,67,1.0,12.0,98,0.00,,,0.20,Wunderground v.1.15,2013-04-11 15:20:00,
2013-04-11 11:28:00,42.3,41.8,29.93,East,89,3.0,12.0,98,0.00,,,0.20,Wunderground v.1.15,2013-04-11 15:28:00,
2013-04-11 11:34:00,42.3,41.8,29.92,East,97,3.0,12.0,98,0.00,,,0.20,Wunderground v.1.15,2013-04-11 15:34:00,
2013-04-11 11:40:00,42.5,42.0,29.94,NE,35,2.0,12.0,98,0.00,,,0.21,Wunderground v.1.15,2013-04-11 15:40:00,
2013-04-11 11:47:00,42.6,42.1,29.95,NNE,27,2.0,12.0,98,0.00,,,0.21,Wunderground v.1.15,2013-04-11 15:47:00,
2013-04-11 11:54:00,42.7,42.2,29.94,NE,38,3.0,12.0,98,0.00,,,0.21,Wunderground v.1.15,2013-04-11 15:54:00,
2013-04-11 11:59:00,42.6,42.1,29.92,East,86,3.0,3.0,98,0.00,,,0.21,Wunderground v.1.15,2013-04-11 15:59:00,
2013-04-11 12:05:00,42.5,42.0,29.90,ESE,109,5.0,15.0,98,0.00,,,0.21,Wunderground v.1.15,2013-04-11 16:05:00,
2013-04-11 12:12:00,42.5,42.0,29.88,East,99,9.0,15.0,98,0.00,,,0.22,Wunderground v.1.15,2013-04-11 16:12:00,
2013-04-11 12:18:00,42.7,42.2,29.96,NW,317,11.0,18.0,98,0.00,,,0.22,Wunderground v.1.15,2013-04-11 16:18:00,
2013-04-11 12:24:00,42.4,41.9,29.95,North,5,8.0,10.0,98,0.00,,,0.22,Wunderground v.1.15,2013-04-11 16:24:00,
2013-04-11 12:30:00,42.2,41.7,29.95,NNW,327,4.0,4.0,98,0.00,,,0.22,Wunderground v.1.15,2013-04-11 16:30:00,
2013-04-11 12:38:00,41.6,40.8,29.95,NE,42,4.0,11.0,97,0.00,,,0.22,Wunderground v.1.15,2013-04-11 16:38:00,
2013-04-11 12:44:00,41.3,40.5,29.94,ENE,62,3.0,7.0,97,0.00,,,0.22,Wunderground v.1.15,2013-04-11 16:44:00,
2013-04-11 12:50:00,41.1,40.3,29.93,East,83,4.0,4.0,97,0.00,,,0.22,Wunderground v.1.15,2013-04-11 16:50:00,
2013-04-11 12:58:00,41.8,41.3,29.91,ENE,60,4.0,6.0,98,0.00,,,0.22,Wunderground v.1.15,2013-04-11 16:58:00,
2013-04-11 13:03:00,42.4,41.9,29.91,ESE,107,3.0,7.0,98,0.00,,,0.23,Wunderground v.1.15,2013-04-11 17:03:00,
2013-04-11 13:10:00,43.1,42.6,29.92,SE,129,2.0,7.0,98,0.00,,,0.23,Wunderground v.1.15,2013-04-11 17:10:00,
2013-04-11 13:17:00,43.6,43.1,29.92,East,97,1.0,7.0,98,0.00,,,0.23,Wunderground v.1.15,2013-04-11 17:17:00,
2013-04-11 13:23:00,44.3,43.8,29.92,NNE,20,1.0,7.0,98,0.00,,,0.23,Wunderground v.1.15,2013-04-11 17:23:00,
2013-04-11 13:29:00,44.9,44.4,29.92,ENE,61,2.0,2.0,98,0.00,,,0.23,Wunderground v.1.15,2013-04-11 17:29:00,
2013-04-11 13:35:00,45.6,45.1,29.93,NNE,24,1.0,7.0,98,0.00,,,0.23,Wunderground v.1.15,2013-04-11 17:35:00,
2013-04-11 13:40:00,46.1,45.6,29.94,NE,42,1.0,7.0,98,0.00,,,0.23,Wunderground v.1.15,2013-04-11 17:40:00,
2013-04-11 13:48:00,46.4,45.9,29.92,NE,55,2.0,7.0,98,0.00,,,0.24,Wunderground v.1.15,2013-04-11 17:48:00,
2013-04-11 13:54:00,46.6,46.1,29.93,ENE,74,3.0,7.0,98,0.00,,,0.24,Wunderground v.1.15,2013-04-11 17:54:00,
2013-04-11 13:59:00,46.7,46.2,29.92,NE,51,3.0,3.0,98,0.00,,,0.24,Wunderground v.1.15,2013-04-11 17:59:00,
2013-04-11 14:05:00,46.9,46.4,29.91,ENE,58,4.0,9.0,98,0.00,,,0.24,Wunderground v.1.15,2013-04-11 18:05:00,
2013-04-11 14:10:00,46.7,46.2,29.91,North,355,6.0,8.0,98,0.00,,,0.24,Wunderground v.1.15,2013-04-11 18:10:00,
2013-04-11 14:18:00,46.7,46.2,29.91,North,11,5.0,10.0,98,0.00,,,0.24,Wunderground v.1.15,2013-04-11 18:18:00,
2013-04-11 14:25:00,46.7,45.9,29.92,East,88,4.0,9.0,97,0.00,,,0.24,Wunderground v.1.15,2013-04-11 18:25:00,
2013-04-11 14:30:00,46.8,46.0,29.91,ENE,67,3.0,4.0,97,0.00,,,0.24,Wunderground v.1.15,2013-04-11 18:30:00,
2013-04-11 14:35:00,47.0,46.2,29.92,East,88,3.0,7.0,97,0.00,,,0.24,Wunderground v.1.15,2013-04-11 18:35:00,
2013-04-11 14:42:00,47.3,46.2,29.92,East,96,3.0,7.0,96,0.00,,,0.24,Wunderground v.1.15,2013-04-11 18:42:00,
2013-04-11 14:47:00,47.7,46.9,29.93,SE,125,2.0,7.0,97,0.00,,,0.25,Wunderground v.1.15,2013-04-11 18:47:00,
2013-04-11 14:53:00,47.8,46.7,29.94,NNE,15,2.0,7.0,96,0.00,,,0.25,Wunderground v.1.15,2013-04-11 18:53:00,
2013-04-11 14:58:00,47.8,46.4,29.94,ESE,114,1.0,7.0,95,0.00,,,0.25,Wunderground v.1.15,2013-04-11 18:58:00,
2013-04-11 15:04:00,47.7,46.3,29.94,East,91,1.0,1.0,95,0.00,,,0.25,Wunderground v.1.15,2013-04-11 19:04:00,
2013-04-11 15:09:00,47.7,46.3,29.94,ENE,73,0.0,4.0,95,0.00,,,0.25,Wunderground v.1.15,2013-04-11 19:09:00,
2013-04-11 15:15:00,47.7,46.1,29.92,East,90,2.0,4.0,94,0.00,,,0.25,Wunderground v.1.15,2013-04-11 19:15:00,
2013-04-11 15:21:00,47.6,46.0,29.91,East,79,3.0,3.0,94,0.00,,,0.25,Wunderground v.1.15,2013-04-11 19:21:00,
2013-04-11 15:27:00,47.9,46.5,29.91,NE,54,3.0,4.0,95,0.00,,,0.25,Wunderground v.1.15,2013-04-11 19:27:00,
2013-04-11 15:32:00,48.0,46.4,29.90,NE,42,2.0,5.0,94,0.00,,,0.26,Wunderground v.1.15,2013-04-11 19:32:00,
2013-04-11 15:38:00,47.9,46.3,29.90,ENE,59,3.0,5.0,94,0.00,,,0.26,Wunderground v.1.15,2013-04-11 19:38:00,
2013-04-11 15:44:00,47.7,45.8,29.90,NNE,26,3.0,8.0,93,0.00,,,0.26,Wunderground v.1.15,2013-04-11 19:44:00,
2013-04-11 15:50:00,47.5,45.6,29.90,East,97,3.0,3.0,93,0.00,,,0.26,Wunderground v.1.15,2013-04-11 19:50:00,
2013-04-11 15:57:00,47.4,45.5,29.90,East,101,2.0,4.0,93,0.00,,,0.26,Wunderground v.1.15,2013-04-11 19:57:00,
2013-04-11 16:03:00,47.4,45.5,29.90,ENE,67,4.0,7.0,93,0.00,,,0.26,Wunderground v.1.15,2013-04-11 20:03:00,
2013-04-11 16:09:00,47.5,45.6,29.90,NE,48,3.0,7.0,93,0.00,,,0.26,Wunderground v.1.15,2013-04-11 20:09:00,
2013-04-11 16:15:00,47.4,45.5,29.89,East,80,3.0,7.0,93,0.00,,,0.26,Wunderground v.1.15,2013-04-11 20:15:00,
2013-04-11 16:22:00,47.5,45.6,29.89,ENE,78,3.0,7.0,93,0.00,,,0.26,Wunderground v.1.15,2013-04-11 20:22:00,
2013-04-11 16:27:00,47.4,45.5,29.89,ENE,58,4.0,7.0,93,0.00,,,0.26,Wunderground v.1.15,2013-04-11 20:27:00,
2013-04-11 16:34:00,47.5,45.6,29.89,NE,52,2.0,7.0,93,0.00,,,0.26,Wunderground v.1.15,2013-04-11 20:34:00,
2013-04-11 16:39:00,47.4,45.5,29.88,East,84,2.0,7.0,93,0.00,,,0.26,Wunderground v.1.15,2013-04-11 20:39:00,
2013-04-11 16:44:00,47.2,45.0,29.88,ENE,70,3.0,7.0,92,0.00,,,0.26,Wunderground v.1.15,2013-04-11 20:44:00,
2013-04-11 16:50:00,47.1,44.9,29.88,East,85,2.0,7.0,92,0.00,,,0.26,Wunderground v.1.15,2013-04-11 20:50:00,
2013-04-11 16:56:00,46.9,44.7,29.88,East,88,3.0,8.0,92,0.00,,,0.26,Wunderground v.1.15,2013-04-11 20:56:00,
2013-04-11 17:02:00,46.8,44.6,29.87,ENE,74,4.0,7.0,92,0.00,,,0.26,Wunderground v.1.15,2013-04-11 21:02:00,
2013-04-11 17:08:00,46.9,44.7,29.87,ESE,117,3.0,7.0,92,0.00,,,0.26,Wunderground v.1.15,2013-04-11 21:08:00,
2013-04-11 17:13:00,46.7,44.5,29.87,SE,133,4.0,10.0,92,0.00,,,0.26,Wunderground v.1.15,2013-04-11 21:13:00,
2013-04-11 17:19:00,46.6,44.4,29.87,ENE,68,5.0,5.0,92,0.00,,,0.27,Wunderground v.1.15,2013-04-11 21:19:00,
2013-04-11 17:24:00,46.6,44.7,29.87,ENE,67,4.0,7.0,93,0.00,,,0.27,Wunderground v.1.15,2013-04-11 21:24:00,
2013-04-11 17:30:00,46.7,44.8,29.87,ENE,78,4.0,7.0,93,0.00,,,0.27,Wunderground v.1.15,2013-04-11 21:30:00,
2013-04-11 17:35:00,46.6,44.7,29.87,NE,36,4.0,7.0,93,0.00,,,0.27,Wunderground v.1.15,2013-04-11 21:35:00,
2013-04-11 17:42:00,46.4,44.5,29.87,East,85,3.0,7.0,93,0.00,,,0.27,Wunderground v.1.15,2013-04-11 21:42:00,
2013-04-11 17:48:00,46.2,44.3,29.86,East,94,4.0,7.0,93,0.00,,,0.27,Wunderground v.1.15,2013-04-11 21:48:00,
2013-04-11 17:54:00,46.1,44.2,29.88,East,84,2.0,7.0,93,0.00,,,0.27,Wunderground v.1.15,2013-04-11 21:54:00,
2013-04-11 17:59:00,46.1,44.2,29.87,NNE,13,1.0,2.0,93,0.00,,,0.27,Wunderground v.1.15,2013-04-11 21:59:00,
2013-04-11 18:05:00,46.2,44.3,29.86,ENE,58,2.0,5.0,93,0.00,,,0.27,Wunderground v.1.15,2013-04-11 22:05:00,
2013-04-11 18:12:00,46.1,44.2,29.87,ENE,67,3.0,4.0,93,0.00,,,0.27,Wunderground v.1.15,2013-04-11 22:12:00,
2013-04-11 18:18:00,46.0,44.1,29.87,NE,55,2.0,5.0,93,0.00,,,0.28,Wunderground v.1.15,2013-04-11 22:18:00,
2013-04-11 18:24:00,46.0,44.1,29.87,NE,45,2.0,5.0,93,0.00,,,0.28,Wunderground v.1.15,2013-04-11 22:24:00,
2013-04-11 18:30:00,45.9,44.0,29.87,ENE,71,3.0,4.0,93,0.00,,,0.28,Wunderground v.1.15,2013-04-11 22:30:00,
2013-04-11 18:35:00,45.7,43.8,29.87,East,85,3.0,4.0,93,0.00,,,0.28,Wunderground v.1.15,2013-04-11 22:35:00,
2013-04-11 18:40:00,45.7,43.8,29.86,SE,127,3.0,3.0,93,0.00,,,0.28,Wunderground v.1.15,2013-04-11 22:40:00,
2013-04-11 18:45:00,45.5,43.6,29.86,ENE,64,3.0,6.0,93,0.00,,,0.28,Wunderground v.1.15,2013-04-11 22:45:00,
2013-04-11 18:52:00,45.4,43.8,29.85,East,93,3.0,5.0,94,0.00,,,0.28,Wunderground v.1.15,2013-04-11 22:52:00,
2013-04-11 18:58:00,45.3,43.7,29.85,ESE,109,2.0,5.0,94,0.00,,,0.28,Wunderground v.1.15,2013-04-11 22:58:00,
2013-04-11 19:03:00,45.3,43.7,29.85,ENE,71,1.0,10.0,94,0.00,,,0.28,Wunderground v.1.15,2013-04-11 23:03:00,
2013-04-11 19:09:00,45.2,43.6,29.84,East,88,2.0,2.0,94,0.00,,,0.28,Wunderground v.1.15,2013-04-11 23:09:00,
2013-04-11 19:14:00,45.2,43.6,29.85,SSE,151,1.0,10.0,94,0.00,,,0.28,Wunderground v.1.15,2013-04-11 23:14:00,
2013-04-11 19:20:00,45.2,43.9,29.84,ENE,70,0.0,10.0,95,0.00,,,0.28,Wunderground v.1.15,2013-04-11 23:20:00,
2013-04-11 19:26:00,45.2,43.9,29.84,ENE,78,1.0,10.0,95,0.00,,,0.28,Wunderground v.1.15,2013-04-11 23:26:00,
2013-04-11 19:34:00,45.3,44.0,29.84,ENE,60,0.0,10.0,95,0.00,,,0.28,Wunderground v.1.15,2013-04-11 23:34:00,
2013-04-11 19:40:00,45.3,44.0,29.83,NE,48,1.0,10.0,95,0.00,,,0.28,Wunderground v.1.15,2013-04-11 23:40:00,
2013-04-11 19:45:00,45.3,44.0,29.83,NE,46,1.0,10.0,95,0.00,,,0.29,Wunderground v.1.15,2013-04-11 23:45:00,
2013-04-11 19:53:00,45.4,44.1,29.82,ENE,66,1.0,10.0,95,0.00,,,0.29,Wunderground v.1.15,2013-04-11 23:53:00,
2013-04-11 19:59:00,45.4,44.1,29.82,East,93,2.0,2.0,95,0.00,,,0.29,Wunderground v.1.15,2013-04-11 23:59:00,
2013-04-11 20:05:00,45.5,44.4,29.81,East,80,1.0,10.0,96,0.00,,,0.29,Wunderground v.1.15,2013-04-12 00:05:00,
2013-04-11 20:10:00,45.6,44.5,29.81,South,187,1.0,10.0,96,0.00,,,0.29,Wunderground v.1.15,2013-04-12 00:10:00,
2013-04-11 20:15:00,45.7,44.6,29.82,SSE,152,1.0,10.0,96,0.00,,,0.29,Wunderground v.1.15,2013-04-12 00:15:00,
2013-04-11 20:20:00,45.8,44.7,29.81,SE,135,1.0,10.0,96,0.00,,,0.29,Wunderground v.1.15,2013-04-12 00:20:00,
2013-04-11 20:25:00,45.9,44.8,29.81,SE,125,2.0,10.0,96,0.00,,,0.29,Wunderground v.1.15,2013-04-12 00:25:00,
2013-04-11 20:31:00,46.0,44.9,29.81,ENE,75,3.0,10.0,96,0.00,,,0.29,Wunderground v.1.15,2013-04-12 00:31:00,
2013-04-11 20:36:00,46.3,45.2,29.80,East,86,3.0,10.0,96,0.00,,,0.29,Wunderground v.1.15,2013-04-12 00:36:00,
2013-04-11 20:43:00,46.5,45.4,29.80,ESE,119,5.0,13.0,96,0.00,,,0.30,Wunderground v.1.15,2013-04-12 00:43:00,
2013-04-11 20:48:00,46.6,45.5,29.79,East,80,6.0,13.0,96,0.00,,,0.30,Wunderground v.1.15,2013-04-12 00:48:00,
2013-04-11 20:54:00,46.7,45.6,29.78,East,85,5.0,10.0,96,0.00,,,0.30,Wunderground v.1.15,2013-04-12 00:54:00,
2013-04-11 20:59:00,46.8,45.7,29.78,East,86,4.0,4.0,96,0.00,,,0.30,Wunderground v.1.15,2013-04-12 00:59:00,
2013-04-11 21:05:00,46.9,45.5,29.78,East,93,4.0,6.0,95,0.00,,,0.30,Wunderground v.1.15,2013-04-12 01:05:00,
2013-04-11 21:10:00,47.1,45.7,29.77,East,88,5.0,6.0,95,0.00,,,0.30,Wunderground v.1.15,2013-04-12 01:10:00,
2013-04-11 21:17:00,47.2,45.8,29.76,East,83,6.0,10.0,95,0.00,,,0.30,Wunderground v.1.15,2013-04-12 01:17:00,
2013-04-11 21:23:00,47.2,45.8,29.76,East,94,7.0,7.0,95,0.00,,,0.30,Wunderground v.1.15,2013-04-12 01:23:00,
2013-04-11 21:28:00,47.2,45.8,29.76,East,88,6.0,11.0,95,0.00,,,0.30,Wunderground v.1.15,2013-04-12 01:28:00,
2013-04-11 21:34:00,47.1,45.7,29.75,East,82,7.0,12.0,95,0.00,,,0.30,Wunderground v.1.15,2013-04-12 01:34:00,
2013-04-11 21:40:00,47.0,45.6,29.76,East,82,7.0,12.0,95,0.00,,,0.30,Wunderground v.1.15,2013-04-12 01:40:00,
2013-04-11 21:45:00,47.0,45.6,29.75,ENE,75,8.0,13.0,95,0.00,,,0.30,Wunderground v.1.15,2013-04-12 01:45:00,
2013-04-11 21:52:00,46.9,45.5,29.75,East,88,8.0,12.0,95,0.00,,,0.30,Wunderground v.1.15,2013-04-12 01:52:00,
2013-04-11 21:58:00,47.0,45.6,29.75,East,101,8.0,12.0,95,0.00,,,0.30,Wunderground v.1.15,2013-04-12 01:58:00,
2013-04-11 22:04:00,47.1,45.7,29.75,East,92,8.0,13.0,95,0.00,,,0.30,Wunderground v.1.15,2013-04-12 02:04:00,
2013-04-11 22:10:00,47.3,45.9,29.74,ESE,121,7.0,13.0,95,0.00,,,0.30,Wunderground v.1.15,2013-04-12 02:10:00,
2013-04-11 22:16:00,47.4,46.0,29.73,East,88,7.0,13.0,95,0.00,,,0.30,Wunderground v.1.15,2013-04-12 02:16:00,
2013-04-11 22:22:00,47.4,46.0,29.72,ENE,76,8.0,14.0,95,0.00,,,0.31,Wunderground v.1.15,2013-04-12 02:22:00,
2013-04-11 22:28:00,47.4,45.8,29.71,NE,54,9.0,14.0,94,0.00,,,0.31,Wunderground v.1.15,2013-04-12 02:28:00,
2013-04-11 22:34:00,47.4,45.8,29.71,SE,132,8.0,13.0,94,0.00,,,0.31,Wunderground v.1.15,2013-04-12 02:34:00,
2013-04-11 22:40:00,47.5,45.9,29.71,SSE,148,8.0,13.0,94,0.00,,,0.31,Wunderground v.1.15,2013-04-12 02:40:00,
2013-04-11 22:45:00,47.6,46.0,29.71,East,98,7.0,13.0,94,0.00,,,0.31,Wunderground v.1.15,2013-04-12 02:45:00,
2013-04-11 22:52:00,47.7,46.1,29.70,East,93,6.0,13.0,94,0.00,,,0.31,Wunderground v.1.15,2013-04-12 02:52:00,
2013-04-11 22:57:00,47.8,46.2,29.70,ENE,76,7.0,13.0,94,0.00,,,0.31,Wunderground v.1.15,2013-04-12 02:57:00,
2013-04-11 23:03:00,47.9,46.3,29.70,East,96,6.0,13.0,94,0.00,,,0.31,Wunderground v.1.15,2013-04-12 03:03:00,
2013-04-11 23:09:00,48.0,46.4,29.70,East,92,5.0,13.0,94,0.00,,,0.31,Wunderground v.1.15,2013-04-12 03:09:00,
2013-04-11 23:15:00,48.2,46.6,29.70,East,96,5.0,13.0,94,0.00,,,0.31,Wunderground v.1.15,2013-04-12 03:15:00,
2013-04-11 23:22:00,48.4,46.8,29.69,NE,56,6.0,13.0,94,0.00,,,0.31,Wunderground v.1.15,2013-04-12 03:22:00,
2013-04-11 23:28:00,48.4,46.8,29.69,East,84,5.0,13.0,94,0.00,,,0.32,Wunderground v.1.15,2013-04-12 03:28:00,
2013-04-11 23:34:00,48.5,46.9,29.69,East,94,5.0,13.0,94,0.00,,,0.32,Wunderground v.1.15,2013-04-12 03:34:00,
2013-04-11 23:39:00,48.5,46.6,29.69,North,351,4.0,4.0,93,0.00,,,0.32,Wunderground v.1.15,2013-04-12 03:39:00,
2013-04-11 23:45:00,48.5,46.6,29.70,West,275,1.0,13.0,93,0.00,,,0.32,Wunderground v.1.15,2013-04-12 03:45:00,
2013-04-11 23:51:00,48.5,46.9,29.72,West,261,2.0,13.0,94,0.00,,,0.32,Wunderground v.1.15,2013-04-12 03:51:00,
2013-04-11 23:58:00,48.5,46.9,29.70,WNW,301,1.0,13.0,94,0.00,,,0.00,Wunderground v.1.15,2013-04-12 03:58:00,